Tracking 31027 objects as of 19-Jul-2025
HD Live streaming from Space Station
objects crossing your sky now

STARLINK-32412

Track STARLINK-32412 now!
10-day predictions
STARLINK-32412 is classified as:


NORAD ID: 61680
Int'l Code: 2024-193V
Perigee: 481.5 km
Apogee: 483.2 km
Inclination: 53.2 °
Period: 94.1 minutes
Semi major axis: 6853 km
RCS: Unknown
Launch date: October 26, 2024
Source: United States (US)
Launch site: AIR FORCE EASTERN TEST RANGE (AFETR)
Your satellite tracking list
KL-BETA B
Track 1 satellite(s)




NASA's NSSDC Master Catalog

Two Line Element Set (TLE):
1 61680U 24193V   25199.14865895  .00000053  00000-0  13904-4 0  9991
2 61680  53.1607 100.6858 0001272  78.2990 281.8153 15.30194374 40616
Source of the keplerian elements: AFSPC